{"data":{"norad_id":67058,"intl_designator":"2025-294AE","name":"STARLINK-35767","alt_names":[],"object_type":"PAYLOAD","status":"ACTIVE","operator":null,"country":"US","launch_date":"2025-12-11","launch_site_code":"AFETR","launch_vehicle":null,"mission":null,"orbit_class":"UNKNOWN","rcs_meters":null,"size_class":null,"mass_kg":null,"dimensions":null,"purposes":["comms"],"wikipedia_slug":null,"has_3d_model":false,"image_url":null,"decayed_at":null,"tle_current":{"epoch":"2026-05-24T18:48:54.756576Z","epoch_age_seconds":90769,"freshness":"FRESH","line1":"1 67058U 25294AE  26144.78396709  .00014481  00000+0  53451-3 0  9992","line2":"2 67058  43.0009 328.6071 0001523 263.0208  97.0470 15.27593181 26437","mean_motion":15.27593181,"eccentricity":0.0001523,"inclination_deg":43.0009,"raan_deg":328.6071,"arg_perigee_deg":263.0208,"mean_anomaly_deg":97.047,"bstar":0.00053451,"rev_number":2643,"period_min":94.265935322999,"perigee_km":481.96467503622,"apogee_km":484.05458029901,"semimajor_km":6861.1466276676,"source":"CELESTRAK","updated_at":"2026-05-25T13:38:21.442579Z"}}}